Regional Weather Roundup
Issued by NWS Sterling, VA

Home | Current Version | Previous Version | Text Only | Print | Product List | Glossary On
Versions: 1 2 3 4 5 6 7 8 9 10 11 12 13 14 15 16 17 18 19 20 21 22 23 24 25 26 27 28 29 30 31 32 33 34 35 36 37 38 39 40 41 42 43 44 45 46 47 48 49 50
737
ASUS41 KLWX 291011
RWRLWX

REGIONAL WEATHER ROUNDUP
NATIONAL WEATHER SERVICE BALTIMORE MD/WASHINGTON DC
600 AM EDT THU SEP 29 2016

Note: "FAIR" indicates few or no clouds below 12,000 feet
with no significant weather and/or obstructions to visibility.
 TC=TEMPERATURE CELSIUS

 * =Non NWS site. Station does not report precipitation (e.g. rain,
    snow, etc.), thunder, or fog.

DCZ001-MDZ009-015-VAZ040>042-051-053>054-291100-
WASHINGTON METRO

CITY           SKY/WX    TMP DP  RH WIND       PRES   REMARKS
WASHINGTON NAT LGT RAIN  68  67  96 E23G33    30.05R
DULLES         LGT RAIN  66  64  93 E12       30.05R
QUANTICO       TSTM      67  66  97 N12       30.05S FOG
COLLEGE PARK*  CLOUDY    64  63  94 E13G18    30.07S
LEESBURG*      RAIN      68  68 100 SE12G17   30.07R
MANASSAS*      CLOUDY    66  64  94 E6        30.06R
GAITHERSBURG*  CLOUDY    64  61  88 E10G20    30.10R

$$

MDZ006>007-011-014-291100-
BALTIMORE METRO

CITY           SKY/WX    TMP DP  RH WIND       PRES   REMARKS
BWI AIRPORT    LGT RAIN  65  63  93 E18G28    30.10S
MD SCIENCE CTR   N/A     64  62  93 MISG      30.10F
MARTIN STATE   RAIN      64  64 100 E9G16     30.12
ANNAPOLIS      LGT RAIN  68  65  90 E15G26    30.09R
FORT MEADE*    CLOUDY    64  63  94 E16G24    30.12R

$$

MDZ012-015-019>023-291100-
MARYLAND EASTERN SHORE

CITY           SKY/WX    TMP DP  RH WIND       PRES   REMARKS
OCEAN CITY     RAIN     N/A N/A N/A E25G33    30.08S
SALISBURY      LGT RAIN  69  68  96 E9        30.10R
BAY BRIDGE AP* LGT RAIN  66  64  94 MISG      30.10R
CAMBRIDGE*     CLOUDY    66  64  94 E10G16    30.08R
EASTON*        CLOUDY    68  64  88 E12G18    30.13

$$

MDZ017>025-291100-
SOUTHERN MARYLAND

CITY           SKY/WX    TMP DP  RH WIND       PRES   REMARKS
PATUXENT RIVER CLOUDY    68  65  90 E14       30.05S
ST INIGOES     CLOUDY    69  67  93 NE9G20    30.05R
LEONARDTOWN*   CLOUDY    66  64  94 E6        30.07R

$$

MDZ003>005-291100-
NORTH CENTRAL MARYLAND

CITY           SKY/WX    TMP DP  RH WIND       PRES   REMARKS
FREDERICK*     NOT AVBL
HAGERSTOWN APT HVY RAIN  61  58  90 E14       30.08S FOG

$$

MDZ501>502-291100-
WESTERN MARYLAND

CITY           SKY/WX    TMP DP  RH WIND       PRES   REMARKS
OAKLAND*       CLOUDY    54  54 100 E10G16    30.08S FOG
CUMBERLAND*    CLOUDY    61  61 100 N5          N/A

$$

VAZ025>031-291100-
SHENANDOAH VALLEY

CITY           SKY/WX    TMP DP  RH WIND       PRES   REMARKS
WINCHESTER*    RAIN      61  61 100 CALM        N/A
FRONT ROYAL*   CLOUDY    61  61 100 NE3       30.03S
LURAY*         LGT RAIN N/A N/A N/A NE6       30.03R
NEW MARKET*    CLOUDY   N/A N/A N/A N5        30.02R
STAUNTON*      CLOUDY    62  61  97 N3        30.03F
WAYNESBORO*    CLOUDY    61  60  96 N3        30.02S

$$

WVZ021-048>050-054>055-291100-
EASTERN WEST VIRGINIA PANHANDLE

CITY           SKY/WX    TMP DP  RH WIND       PRES   REMARKS
MARTINSBURG    RAIN      60  59  96 N9        30.07R FOG
PETERSBURG*    DRIZZLE   64  63  97 CALM      30.03R

$$

VAZ036>039-050-291100-
CENTRAL FOOTHILLS

CITY           SKY/WX    TMP DP  RH WIND       PRES   REMARKS
CHARLOTTESVILL CLOUDY    68  65  90 NE5       30.01R FOG
CULPEPER*      LGT RAIN  67  67  99 E5        30.03S
ORANGE*          N/A     68  68 100 CALM      30.04R
GORDONSVILLE*  CLOUDY    66  66 100 NE6       30.00R
WARRENTON*     HVY RAIN  67  62  83 NE7       30.02F

$$

VAZ055>057-291100-
NORTH AND CENTRAL PIEDMONT

CITY           SKY/WX    TMP DP  RH WIND       PRES   REMARKS
FREDERICKSBRG* RAIN      67  67 100 NE7       30.00F
STAFFORD*      TSTM      67  67 100 E9        30.06F

$$

NCZ024-NYZ072-PAZ021-071-VAZ022-071-291100-
OTHER REGIONAL OBSERVATIONS

CITY           SKY/WX    TMP DP  RH WIND       PRES   REMARKS
NEW YORK CITY  CLOUDY    61  53  75 E9G20     30.32R
PHILADELPHIA   LGT RAIN  62  60  93 NE14G24   30.19S
PITTSBURGH     DRIZZLE   56  56 100 VRB3      30.05R FOG
ROANOKE        CLOUDY    65  64  97 E5        30.00R
RICHMOND       CLOUDY    67  65  93 E14       29.99F
RALEIGH        TSTM      66  64  93 VRB3      29.95S

$$

ANZ530>537-291100-
MARINE OBSERVATIONS

STATION/POSITION TIME  TEMP    WIND        PRES
                       AIR SEA DIR/SP/G
                 (UTC) (F)     (DEG/KT/KT) (MB)
THOMAS PT LIGHT  1000   68 73   80/ 27/ 30 1019.2F
BALT KEY BRIDGE  0948   66      70/ 18/ 23 1019.1F
COVE POINT       0948   69     120/ 16/ 21 1018.3S
LEWISETTA        0948   71 72  100/ 19/ 22 1016.8R
SOLOMONS ISLAND  0942   69 74   70/ 15/ 19   N/A
PINEY POINT      0948          100/ 18/ 20   N/A

$$





USA.gov is the U.S. government's official web portal to all federal, state and local government web resources and services.